TIME,DELAY(SENSOR),PRES,OXYGEN,RAWTEMP,T(OPTODE),TCPHASE,FLUOR,BETA(BETA700),BETA(BETA412),BETA(BETA440),CDOM,C(CSC),ED(ED412.40),ED(ED444.00),ED(ED489.70),ED(ED554.30),LU(LU411.80),LU(LU443.40),LU(LU489.60),LU(LU554.10),COMP,TILTX,TILTY,CHECK
1361245628,5807,899.7899780273438000,44.5813102722168000,659.1860961914062000,4.6547641754150390,54.3068313598632800,53,99,85,80,79,14940,2147754112,2147424768,2148011218,2147873792,2147637275,2147055250,2148256923,2147196845,243,4,14,64019
1361249225,5806,964.6300048828125000,47.1285095214843750,668.6826782226562000,4.3417029380798340,54.0575981140136700,53,100,88,80,80,14941,2147759305,2147424896,2148011949,2147876032,2147639625,2147058944,2148260589,2147195474,3145,4,14,27931
1361252825,5808,978.7600097656250000,47.7557983398437500,669.4489135742188000,4.3164010047912600,53.9759597778320300,52,99,87,78,80,14939,2147759899,2147421970,2148013531,2147874834,2147641618,2147054738,2148258697,2147195584,93,4,13,9966
1361256425,5808,989.6699829101562000,47.3801689147949200,669.1829833984375000,4.3251819610595700,54.0273895263671900,53,100,84,79,79,14938,2147756315,2147425344,2148011593,2147872905,2147640521,2147056685,2148260854,2147192621,216,4,14,44219
1361260025,5809,993.4400024414062000,48.0982093811035160,670.2451171875000000,4.2901000976562500,53.9359092712402340,52,100,91,78,80,14936,2147757174,2147423570,2148013805,2147872978,2147641883,2147059328,2148263579,2147197677,403,4,13,52996
1361263625,5810,989.9299926757812000,48.3029785156250000,670.6829223632812000,4.2756371498107910,53.9171409606933600,51,98,85,78,80,14919,2147758729,2147423698,2148011419,2147873755,2147642852,2147062976,2148259264,2147195108,127,4,14,11472
1361267225,5808,993.1799926757812000,48.6162605285644500,671.1995849609375000,4.2585620880126950,53.8770408630371100,53,100,83,78,79,14919,2147755364,2147423597,2148012178,2147870473,2147640018,2147052736,2148261741,2147195968,3121,4,13,39134
1361270825,5810,985.5599975585938000,48.4737892150878900,671.8389282226562000,4.2374339103698730,53.9054908752441400,53,100,90,80,80,14834,2147758701,2147425307,2148012443,2147871451,2147639542,2147055478,2148259739,2147200137,193,4,13,43242
1361274425,5805,991.7500000000000000,49.1013488769531250,672.6074829101562000,4.2120227813720700,53.8264617919921900,52,96,90,79,80,14835,2147758372,2147424658,2148012141,2147871725,2147639414,2147056704,2148264676,2147197650,138,4,14,53653
1361278025,5809,992.5300292968750000,49.1490898132324200,672.7437744140625000,4.2075161933898930,53.8200607299804700,53,97,89,78,80,14836,2147757869,2147421513,2148012461,2147872822,2147640466,2147060288,2148261028,2147196973,469,4,13,37847
1361281625,5806,990.3800048828125000,48.5748901367187500,672.9462280273438000,4.2008228302001950,53.9069404602050800,53,98,84,80,80,14831,2147762185,2147420690,2148011894,2147871945,2147642404,2147053485,2148258276,2147195136,292,4,13,31754
1361285225,5809,990.4500122070312000,48.6403083801269500,672.3167114257812000,4.2216358184814450,53.8902702331543000,52,99,85,78,80,14830,2147760694,2147423954,2148009856,2147874038,2147641152,2147058578,2148261001,2147198436,2912,4,13,38052
1361288825,5810,992.9199829101562000,48.4969902038574200,672.4547119140625000,4.2170748710632320,53.9101791381835940,52,99,87,79,81,14816,2147759780,2147426011,2148014034,2147875501,2147642523,2147053220,2148258916,2147194843,91,4,13,60939
1361292425,5806,989.6500244140625000,48.8543586730957000,673.3773803710938000,4.1865649223327640,53.8684997558593750,52,101,89,79,80,14831,2147757028,2147426605,2148014217,2147875940,2147642203,2147059830,2148262308,2147198546,3251,4,13,8959
1361296025,5810,990.2100219726562000,49.5779800415039060,674.7163696289062000,4.1422710418701170,53.7907485961914060,52,98,90,79,80,14834,2147756068,2147422025,2148013028,2147874742,2147640283,2147057645,2148259062,2147197120,3534,4,13,7051
1361299625,5811,992.2600097656250000,49.6148910522460940,674.1995239257812000,4.1593742370605470,53.7730407714843750,52,99,88,78,80,14827,2147761792,2147421741,2148012800,2147869412,2147642084,2147055460,2148267684,2147196013,3365,4,13,38723
1361303225,5805,991.8200073242188000,49.1906204223632800,673.5299072265625000,4.1815199851989750,53.8281211853027340,52,99,89,80,81,14830,2147755739,2147421494,2148013540,2147871433,2147643291,2147055268,2148261330,2147195547,3450,4,13,1239
1361306825,5810,998.4799804687500000,49.4120597839355500,674.0615844726562000,4.1639351844787600,53.8044509887695300,53,99,87,79,82,14831,2147756086,2147422893,2148012452,2147875876,2147641389,2147052589,2148264941,2147195666,3241,4,13,5844
1361310425,5807,998.7800292968750000,48.6923103332519500,673.1832275390625000,4.1929869651794430,53.8915596008300800,52,99,86,78,80,14833,2147758409,2147422893,2148012059,2147874477,2147645449,2147056630,2148264576,2147194139,3580,4,13,29230
1361314025,5811,996.1599731445312000,47.9510383605957000,672.8892211914062000,4.2027068138122560,53.9939193725585940,53,99,88,79,80,14822,2147755318,2147423469,2148012809,2147872027,2147639195,2147057206,2148261970,2147198317,3132,4,13,17170
1361317625,5811,1003.0100097656250000,48.3413391113281250,671.9597167968750000,4.2334380149841310,53.9243087768554700,52,98,85,79,81,14823,2147755081,2147423670,2148011300,2147874139,2147643026,2147059812,2148256091,2147195876,11,4,13,918
1361321225,5809,1001.6599731445312000,48.0740890502929700,672.2086181640625000,4.2252140045166020,53.9615287780761700,53,100,87,79,80,14822,2147757714,2147424393,2148012580,2147876370,2147642971,2147055707,2148257353,2147193499,3531,4,13,47147
1361324825,5809,1000.7700195312500000,47.9414100646972660,672.0847167968750000,4.2293071746826170,53.9830589294433600,52,98,84,78,80,14822,2147757275,2147423634,2148011264,2147873563,2147641307,2147058569,2148266486,2147196388,220,4,13,34305
1361328425,5812,1000.6900024414062000,48.0750198364257800,671.8920288085938000,4.2356781959533690,53.9620094299316400,54,99,83,79,82,14821,2147758272,2147423826,2148014729,2147874925,2147643894,2147061970,2148261101,2147194697,7,4,13,29011
1361332025,5810,1001.9600219726562000,48.2681007385253900,671.8740844726562000,4.2362670898437500,53.9347190856933600,52,99,88,79,80,14820,2147754166,2147424658,2148013220,2147872896,2147643474,2147060534,2148266541,2147196452,248,4,13,64556
1361335625,5809,996.5300292968750000,48.0233802795410160,672.9910888671875000,4.1993408203125000,53.9839210510253900,52,97,86,79,81,14818,2147759204,2147424384,2148014034,2147873984,2147639341,2147061019,2148262829,2147196544,70,4,13,21930
1361339225,5806,1000.4799804687500000,48.8798599243164060,673.2003784179688000,4.1924171447753910,53.8690681457519500,53,101,86,78,81,14819,2147758272,2147425828,2148015789,2147872347,2147642953,2147059648,2148264768,2147197476,277,4,13,17755
1361342825,5809,1003.1699829101562000,48.4800682067871100,672.4707031250000000,4.2165470123291020,53.9144401550293000,52,97,84,79,80,14818,2147760292,2147425472,2148014930,2147878217,2147643986,2147058258,2148258450,2147198226,41,4,13,7066
1361346425,5804,1002.2600097656250000,47.8758811950683600,672.6560058593750000,4.2104210853576660,53.9978218078613300,53,97,86,78,80,14745,2147758537,2147424658,2148016310,2147872320,2147640429,2147059044,2148259163,2147196397,88,4,13,42516
1361350025,5809,1002.0700073242188000,47.9919281005859400,672.3178710937500000,4.2216000556945800,53.9748992919921900,53,99,85,80,82,14745,2147756790,2147422857,2148016027,2147873270,2147643657,2147058843,2148258953,2147200310,877,4,13,26148
1361353625,5806,1009.2000122070312000,48.3468589782714840,671.6226806640625000,4.2445788383483890,53.9223594665527340,53,99,83,78,79,14745,2147757732,2147423515,2148011876,2147874285,2147642934,2147058066,2148261586,2147199707,3569,4,13,39563
1361357225,5810,1009.4000244140625000,48.1449203491210940,671.8660888671875000,4.2365341186523440,53.9488716125488300,53,100,87,79,81,14747,2147752795,2147426560,2148013952,2147873920,2147639323,2147061494,2148257508,2147197531,3200,4,13,15744
1361360825,5808,1009.1699829101562000,47.6366615295410160,670.8403930664062000,4.2704319953918460,54.0082588195800800,52,98,85,80,80,14747,2147756379,2147422820,2148013430,2147875712,2147642669,2147053961,2148258139,2147200621,143,4,14,35892
1361364425,5808,999.2600097656250000,47.9016685485839840,671.6990966796875000,4.2420520782470700,53.9808197021484400,53,99,88,79,80,14745,2147756589,2147422747,2148013174,2147873371,2147642386,2147060013,2148260096,2147197577,1463,4,13,39937
1361368025,5805,996.8599853515625000,48.0199890136718750,672.4509887695312000,4.2171969413757320,53.9736785888671900,52,100,88,78,79,14722,2147756251,2147424758,2148012754,2147871414,2147639899,2147059931,2148264365,2147191424,128,4,13,27754
1361371625,5810,996.5300292968750000,48.0652809143066400,672.9666748046875000,4.2001481056213380,53.9793090820312500,52,99,89,79,80,14747,2147757531,2147426980,2148015433,2147873792,2147642139,2147059410,2148263588,2147193142,3355,4,13,12040
1361375225,5808,999.9600219726562000,48.2264099121093750,672.6082763671875000,4.2119960784912110,53.9508781433105500,52,103,81,78,79,14739,2147760128,2147422966,2148014921,2147873170,2147640676,2147058496,2148262253,2147198198,226,4,13,37650
1361378825,5811,1000.4099731445312000,49.2903785705566400,673.8101806640625000,4.1722488403320310,53.8139991760253900,53,99,86,78,80,14743,2147756873,2147423625,2148013888,2147874240,2147642669,2147065088,2148259904,2147192201,23,4,13,8352
1361382425,5807,1003.6599731445312000,49.1076202392578100,673.6619873046875000,4.1771531105041500,53.8400382995605500,52,98,85,80,81,14738,2147757165,2147423670,2148015222,2147871844,2147640292,2147057444,2148261330,2147196891,2879,4,13,48361
1361386025,5808,999.0900268554688000,48.4975204467773440,674.1751708984375000,4.1601772308349610,53.9320106506347660,52,102,87,80,80,14739,2147757897,2147425526,2148011172,2147874413,2147643318,2147058176,2148256813,2147201298,215,4,13,27164
1361389625,5810,1007.9099731445312000,49.3599815368652340,674.0316772460938000,4.1649231910705570,53.8113708496093750,52,99,87,79,80,14739,2147757138,2147421065,2148012342,2147870656,2147644827,2147058669,2148260297,2147197293,188,4,13,27059
1361390456,5810,1001.7399902343750000,49.2126312255859400,673.7553710937500000,4.1740608215332030,53.8272094726562500,52,99,87,78,81,14909,2147758518,2147424566,2148015634,2147872621,2147640886,2147058368,2148258688,2147197741,3527,4,13,53879
